Weather History for KAHQ - November, 2011

Change the Weather History Date:

Sunday, November 6, 2011

  Actual Average Record
Temperature  
Mean Temperature 46 °F -  
Max Temperature 55 °F 52 °F 78 °F (1980)
Min Temperature 35 °F 31 °F 13 °F (1993)
Degree Days  
Heating Degree Days 19    
Moisture  
Dew Point 34 °F    
Average Humidity 59    
Maximum Humidity 76    
Minimum Humidity 33    
Precipitation  
Precipitation 0.00 in - - ()
Sea Level Pressure  
Sea Level Pressure 29.80 in    
Wind  
Wind Speed 17 mph (WSW)    
Max Wind Speed 26 mph    
Max Gust Speed 36 mph    
Visibility 10 miles    
Events      
Averages and records for this station are not official NWS values.
T = Trace of Precipitation, MM = Missing Value Source: NWS Daily Summary

Daily Weather History Graph

Daily Weather History Graph

Search for Another Location

Airport or City:

Trip Planner

Search our weather history database for the weather conditions in past years. The results will help you decide how hot, cold, wet, or windy it might be!

Date:

Astronomy

Nov. 06, 2011 Rise Set
Actual Time 7:03 AM CST 5:16 PM CST
Civil Twilight 6:34 AM CST 5:45 PM CST
Nautical Twilight 6:01 AM CST 6:17 PM CST
Astronomical Twilight 5:29 AM CST 6:50 PM CST
Moon 3:02 PM CST (11/6) 3:08 AM CST (11/6)
Length of Visible Light 11h 10m
Length of Day
10h 12m
Waxing Gibbous, 86% of the Moon is Illuminated
Nov 6
Waxing Gibbous
Nov 10
Full
Nov 18
Last Quarter
Nov 25
New
Dec 2
First Quarter

Hourly Weather History & Observations

Time (CST) Temp. Windchill Dew Point Humidity Pressure Visibility Wind Dir Wind Speed Gust Speed Precip Events Conditions
12:15 AM 51.8 °F - 41.0 °F 67% 29.59 in 10.0 mi South 25.3 mph 33.4 mph N/A   Scattered Clouds
12:35 AM 51.8 °F - 41.0 °F 67% 29.58 in 10.0 mi South 25.3 mph 33.4 mph N/A   Clear
12:55 AM 51.8 °F - 41.0 °F 67% 29.58 in 10.0 mi South 24.2 mph 31.1 mph N/A   Clear
1:15 AM 51.8 °F - 41.0 °F 67% 29.57 in 10.0 mi South 21.9 mph 28.8 mph N/A   Clear
1:35 AM 51.8 °F - 41.0 °F 67% 29.56 in 10.0 mi South 24.2 mph 31.1 mph N/A   Clear
1:55 AM 51.8 °F - 41.0 °F 67% 29.56 in 10.0 mi South 20.7 mph 28.8 mph N/A   Clear
1:15 AM 51.8 °F - 41.0 °F 67% 29.56 in 10.0 mi South 21.9 mph 28.8 mph N/A   Clear
1:35 AM 51.8 °F - 41.0 °F 67% 29.56 in 10.0 mi South 25.3 mph 32.2 mph N/A   Clear
1:55 AM 51.8 °F - 42.8 °F 71% 29.56 in 10.0 mi South 20.7 mph 27.6 mph N/A   Clear
2:15 AM 51.8 °F - 42.8 °F 71% 29.56 in 10.0 mi South 25.3 mph 31.1 mph N/A   Clear
2:35 AM 51.8 °F - 42.8 °F 71% 29.56 in 10.0 mi South 24.2 mph 31.1 mph N/A   Clear
2:55 AM 51.8 °F - 42.8 °F 71% 29.55 in 10.0 mi South 24.2 mph 28.8 mph N/A   Clear
3:15 AM 51.8 °F - 42.8 °F 71% 29.55 in 10.0 mi South 23.0 mph 29.9 mph N/A   Clear
3:35 AM 51.8 °F - 42.8 °F 71% 29.55 in 10.0 mi SSW 21.9 mph 33.4 mph N/A   Clear
3:55 AM 51.8 °F - 42.8 °F 71% 29.56 in 10.0 mi SSW 21.9 mph 28.8 mph N/A   Clear
4:15 AM 51.8 °F - 41.0 °F 67% 29.57 in 10.0 mi SSW 20.7 mph 28.8 mph N/A   Clear
4:35 AM 51.8 °F - 41.0 °F 67% 29.58 in 10.0 mi SSW 19.6 mph 26.5 mph N/A   Clear
4:55 AM 51.8 °F - 41.0 °F 67% 29.59 in 10.0 mi SW 19.6 mph 25.3 mph N/A   Clear
5:15 AM 50.0 °F - 41.0 °F 71% 29.61 in 10.0 mi WSW 18.4 mph 25.3 mph N/A   Clear
5:35 AM 50.0 °F - 39.2 °F 66% 29.64 in 10.0 mi West 23.0 mph 31.1 mph N/A   Clear
5:55 AM 46.4 °F 37.7 °F 37.4 °F 71% 29.68 in 10.0 mi WNW 26.5 mph 35.7 mph N/A   Clear
6:15 AM 42.8 °F 34.0 °F 35.6 °F 76% 29.70 in 10.0 mi WNW 20.7 mph 27.6 mph N/A   Clear
6:35 AM 42.8 °F 34.3 °F 33.8 °F 70% 29.73 in 10.0 mi WNW 19.6 mph 25.3 mph N/A   Clear
6:55 AM 41.0 °F 33.1 °F 33.8 °F 76% 29.76 in 10.0 mi West 15.0 mph - N/A   Clear
7:15 AM 41.0 °F 33.9 °F 32.0 °F 70% 29.78 in 10.0 mi WNW 12.7 mph 20.7 mph N/A   Clear
7:35 AM 41.0 °F 33.5 °F 32.0 °F 70% 29.79 in 10.0 mi WNW 13.8 mph - N/A   Clear
7:55 AM 41.0 °F 34.3 °F 32.0 °F 70% 29.81 in 10.0 mi West 11.5 mph - N/A   Clear
8:15 AM 41.0 °F 33.5 °F 32.0 °F 70% 29.83 in 10.0 mi West 13.8 mph - N/A   Clear
8:35 AM 42.8 °F 36.6 °F 32.0 °F 66% 29.84 in 10.0 mi West 11.5 mph - N/A   Clear
8:55 AM 42.8 °F 35.8 °F 32.0 °F 66% 29.86 in 10.0 mi West 13.8 mph - N/A   Clear
9:15 AM 44.6 °F 38.4 °F 32.0 °F 61% 29.88 in 10.0 mi West 12.7 mph 18.4 mph N/A   Clear
9:35 AM 44.6 °F 38.4 °F 32.0 °F 61% 29.88 in 10.0 mi West 12.7 mph - N/A   Clear
9:55 AM 46.4 °F 40.4 °F 32.0 °F 57% 29.90 in 10.0 mi West 13.8 mph - N/A   Clear
10:15 AM 46.4 °F 40.4 °F 32.0 °F 57% 29.90 in 10.0 mi West 13.8 mph - N/A   Clear
10:35 AM 48.2 °F - 32.0 °F 54% 29.91 in 10.0 mi WNW 11.5 mph 17.3 mph N/A   Clear
10:55 AM 50.0 °F - 32.0 °F 50% 29.92 in 10.0 mi West 10.4 mph - N/A   Clear
11:15 AM 50.0 °F - 32.0 °F 50% 29.92 in 10.0 mi WNW 11.5 mph - N/A   Clear
11:35 AM 50.0 °F - 32.0 °F 50% 29.92 in 10.0 mi West 11.5 mph - N/A   Clear
11:55 AM 51.8 °F - 32.0 °F 47% 29.92 in 10.0 mi West 9.2 mph - N/A   Clear
12:15 PM 51.8 °F - 30.2 °F 44% 29.92 in 10.0 mi WNW 11.5 mph - N/A   Clear
12:35 PM 53.6 °F - 30.2 °F 41% 29.92 in 10.0 mi West 6.9 mph 18.4 mph N/A   Clear
12:55 PM 53.6 °F - 28.4 °F 38% 29.92 in 10.0 mi West 13.8 mph - N/A   Clear
1:15 PM 53.6 °F - 28.4 °F 38% 29.92 in 10.0 mi West 9.2 mph - N/A   Clear
1:35 PM 53.6 °F - 28.4 °F 38% 29.92 in 10.0 mi WNW 10.4 mph - N/A   Scattered Clouds
2:15 PM 55.4 °F - 26.6 °F 33% 29.92 in 10.0 mi West 9.2 mph - N/A   Scattered Clouds
2:55 PM 55.4 °F - 26.6 °F 33% 29.93 in 10.0 mi Calm Calm - N/A   Mostly Cloudy
3:15 PM 55.4 °F - 26.6 °F 33% 29.93 in 10.0 mi WNW 5.8 mph - N/A   Scattered Clouds
3:35 PM 55.4 °F - 26.6 °F 33% 29.94 in 10.0 mi West 8.1 mph - N/A   Scattered Clouds
3:55 PM 53.6 °F - 26.6 °F 35% 29.95 in 10.0 mi West 3.5 mph - N/A   Scattered Clouds
4:15 PM 53.6 °F - 26.6 °F 35% 29.95 in 10.0 mi West 5.8 mph - N/A   Clear
4:35 PM 53.6 °F - 28.4 °F 38% 29.96 in 10.0 mi West 4.6 mph - N/A   Clear
4:55 PM 51.8 °F - 26.6 °F 38% 29.96 in 10.0 mi WSW 3.5 mph - N/A   Clear
5:15 PM 50.0 °F - 28.4 °F 43% 29.97 in 10.0 mi SW 3.5 mph - N/A   Clear
5:35 PM 48.2 °F - 28.4 °F 46% 29.98 in 10.0 mi SW 3.5 mph - N/A   Clear
5:55 PM 46.4 °F 45.2 °F 28.4 °F 50% 29.99 in 10.0 mi South 3.5 mph - N/A   Clear
6:15 PM 42.8 °F 40.1 °F 28.4 °F 57% 30.00 in 10.0 mi SSW 4.6 mph - N/A   Clear
6:35 PM 42.8 °F 41.1 °F 28.4 °F 57% 30.00 in 10.0 mi South 3.5 mph - N/A   Clear
6:55 PM 37.4 °F 32.8 °F 28.4 °F 70% 30.01 in 10.0 mi South 5.8 mph - N/A   Clear
7:15 PM 37.4 °F 34.9 °F 28.4 °F 70% 30.01 in 10.0 mi SSE 3.5 mph - N/A   Clear
7:35 PM 37.4 °F 34.9 °F 28.4 °F 70% 30.02 in 10.0 mi SSE 3.5 mph - N/A   Clear
7:55 PM 39.2 °F - 28.4 °F 65% 30.02 in 10.0 mi Calm Calm - N/A   Clear
8:15 PM 37.4 °F - 28.4 °F 70% 30.04 in 10.0 mi Calm Calm - N/A   Clear
8:35 PM 35.6 °F - 28.4 °F 75% 30.04 in 10.0 mi Calm Calm - N/A   Clear
8:55 PM 37.4 °F 34.9 °F 28.4 °F 70% 30.05 in 10.0 mi South 3.5 mph - N/A   Clear
9:15 PM 37.4 °F 34.9 °F 28.4 °F 70% 30.06 in 10.0 mi South 3.5 mph - N/A   Clear
9:35 PM 35.6 °F - 28.4 °F 75% 30.07 in 10.0 mi Calm Calm - N/A   Clear
9:55 PM 33.8 °F 30.8 °F 28.4 °F 81% 30.07 in 10.0 mi SSE 3.5 mph - N/A   Clear
10:15 PM 32.0 °F 28.7 °F 28.4 °F 87% 30.07 in 10.0 mi ESE 3.5 mph - N/A   Clear
10:35 PM 32.0 °F - 28.4 °F 87% 30.07 in 10.0 mi Calm Calm - N/A   Clear
10:55 PM 33.8 °F - 26.6 °F 75% 30.07 in 10.0 mi Calm Calm - N/A   Clear